Previsão horária em Plesnica

Hoje, 2 Março, Terça-feira

Tempo Temperatura Precipitação Vento Pressão Humidade
00:00 +3°C° 0 mm 1 m/s 756 mmHg 87%
01:00 +3°C° 0 mm 1 m/s 756 mmHg 86%
02:00 +3°C° 0 mm 1 m/s 756 mmHg 85%
03:00 +3°C° 0 mm 1 m/s 755 mmHg 84%
04:00 +3°C° 0 mm 1 m/s 755 mmHg 83%
05:00 +3°C° 0 mm 1 m/s 755 mmHg 81%
06:00 +3°C° 0 mm 1 m/s 755 mmHg 79%
07:00 +3°C° 0 mm 1 m/s 755 mmHg 77%
08:00 +5°C° 0 mm 1 m/s 755 mmHg 70%
09:00 +7°C° 0 mm 1 m/s 755 mmHg 63%
10:00 +10°C° 0 mm 1 m/s 755 mmHg 56%
11:00 +11°C° 0 mm 1 m/s 755 mmHg 54%
12:00 +12°C° 0 mm 1 m/s 755 mmHg 52%
13:00 +13°C° 0 mm 1 m/s 755 mmHg 50%
14:00 +13°C° 0 mm 1 m/s 755 mmHg 52%
15:00 +13°C° 0 mm 1 m/s 754 mmHg 55%
16:00 +12°C° 0 mm 1 m/s 754 mmHg 58%
17:00 +11°C° 0 mm 1 m/s 754 mmHg 62%
18:00 +8°C° 0 mm 0 m/s 754 mmHg 67%
19:00 +7°C° 0 mm 0 m/s 754 mmHg 72%
20:00 +7°C° 0 mm 0 m/s 754 mmHg 73%
21:00 +6°C° 0 mm 0 m/s 754 mmHg 73%
22:00 +7°C° 0 mm 1 m/s 754 mmHg 74%
23:00 +5°C° 0 mm 0 m/s 754 mmHg 75%

Amanhã, 3 Março, Quarta-feira

Tempo Temperatura Precipitação Vento Pressão Humidade
00:00 +5°C° 0 mm 0 m/s 754 mmHg 75%
01:00 +5°C° 0 mm 0 m/s 754 mmHg 76%
02:00 +4°C° 0 mm 0 m/s 754 mmHg 76%
03:00 +5°C° 0 mm 1 m/s 753 mmHg 76%
04:00 +5°C° 0 mm 1 m/s 753 mmHg 76%
05:00 +5°C° 0 mm 1 m/s 753 mmHg 75%
06:00 +5°C° 0 mm 1 m/s 753 mmHg 74%
07:00 +5°C° 0 mm 1 m/s 753 mmHg 73%
08:00 +7°C° 0 mm 1 m/s 752 mmHg 66%
09:00 +9°C° 0 mm 1 m/s 752 mmHg 59%
10:00 +11°C° 0 mm 1 m/s 752 mmHg 52%
11:00 +12°C° 0 mm 1 m/s 751 mmHg 49%
12:00 +13°C° 0 mm 1 m/s 751 mmHg 45%
13:00 +14°C° 0 mm 1 m/s 751 mmHg 42%
14:00 +14°C° 0 mm 1 m/s 750 mmHg 45%
15:00 +14°C° 0 mm 1 m/s 749 mmHg 47%
16:00 +14°C° 0 mm 1 m/s 749 mmHg 50%
17:00 +12°C° 0 mm 1 m/s 748 mmHg 56%
18:00 +9°C° 0 mm 2 m/s 748 mmHg 62%
19:00 +7°C° 0 mm 2 m/s 748 mmHg 67%
20:00 +7°C° 0 mm 2 m/s 748 mmHg 70%
21:00 +6°C° 0 mm 2 m/s 747 mmHg 72%
22:00 +6°C° 0 mm 2 m/s 747 mmHg 75%
23:00 +6°C° 0 mm 2 m/s 747 mmHg 74%

Depois de amanhã, 4 Março, Quinta-feira

Tempo Temperatura Precipitação Vento Pressão Humidade
00:00 +5°C° 0 mm 2 m/s 746 mmHg 74%
01:00 +5°C° 0 mm 2 m/s 746 mmHg 74%
02:00 +5°C° 0 mm 2 m/s 745 mmHg 74%
03:00 +5°C° 0 mm 2 m/s 745 mmHg 73%
04:00 +5°C° 0 mm 2 m/s 744 mmHg 73%
05:00 +5°C° 0 mm 2 m/s 744 mmHg 75%
06:00 +5°C° 0 mm 2 m/s 744 mmHg 76%
07:00 +5°C° 0 mm 2 m/s 743 mmHg 78%
08:00 +7°C° 0 mm 2 m/s 743 mmHg 72%
09:00 +8°C° 0 mm 2 m/s 743 mmHg 67%
10:00 +10°C° 0 mm 3 m/s 742 mmHg 62%
11:00 +11°C° 0 mm 3 m/s 742 mmHg 60%
12:00 +12°C° 0 mm 3 m/s 741 mmHg 58%
13:00 +13°C° 0 mm 3 m/s 741 mmHg 56%
14:00 +12°C° 0 mm 3 m/s 740 mmHg 58%
15:00 +12°C° 0 mm 3 m/s 740 mmHg 61%
16:00 +12°C° 0 mm 3 m/s 739 mmHg 63%
17:00 +11°C° 0.1 mm 3 m/s 739 mmHg 69%
18:00 +9°C° 0.1 mm 2 m/s 739 mmHg 76%
19:00 +8°C° 0.1 mm 2 m/s 738 mmHg 82%
20:00 +8°C° 0.9 mm 3 m/s 738 mmHg 85%
21:00 +7°C° 0.9 mm 3 m/s 738 mmHg 89%
22:00 +7°C° 0.9 mm 3 m/s 738 mmHg 92%
23:00 +5°C° 2 mm 3 m/s 738 mmHg 92%

5 Março, Sexta-feira

Tempo Temperatura Precipitação Vento Pressão Humidade
00:00 +4°C° 2 mm 4 m/s 738 mmHg 92%
01:00 +4°C° 2 mm 4 m/s 738 mmHg 92%
02:00 +3°C° 0.2 mm 4 m/s 738 mmHg 93%
03:00 +3°C° 0.2 mm 3 m/s 738 mmHg 93%
04:00 +2°C° 0.2 mm 3 m/s 738 mmHg 94%
05:00 +2°C° 0.6 mm 3 m/s 739 mmHg 95%
06:00 0°C° 0.6 mm 4 m/s 739 mmHg 95%
07:00 0°C° 0.6 mm 4 m/s 740 mmHg 96%
08:00 -1°C° 0.6 mm 4 m/s 740 mmHg 93%
09:00 -1°C° 0.6 mm 5 m/s 741 mmHg 90%
10:00 -2°C° 0.6 mm 5 m/s 742 mmHg 88%
11:00 -1°C° 0.2 mm 5 m/s 742 mmHg 82%
12:00 -2°C° 0.2 mm 6 m/s 743 mmHg 76%
13:00 -1°C° 0.2 mm 6 m/s 743 mmHg 70%
14:00 -1°C° 0.1 mm 6 m/s 744 mmHg 65%
15:00 0°C° 0.1 mm 5 m/s 744 mmHg 60%
16:00 0°C° 0.1 mm 5 m/s 745 mmHg 56%
17:00 -1°C° 0 mm 4 m/s 745 mmHg 61%
18:00 -1°C° 0 mm 3 m/s 746 mmHg 67%
19:00 -2°C° 0 mm 3 m/s 747 mmHg 72%
20:00 -2°C° 0 mm 3 m/s 747 mmHg 73%
21:00 -2°C° 0 mm 3 m/s 748 mmHg 74%
22:00 -3°C° 0 mm 4 m/s 748 mmHg 74%
23:00 -3°C° 0 mm 4 m/s 749 mmHg 76%

6 Março, Sábado

Tempo Temperatura Precipitação Vento Pressão Humidade
00:00 -4°C° 0 mm 4 m/s 749 mmHg 78%
01:00 -4°C° 0 mm 4 m/s 749 mmHg 80%
02:00 -4°C° 0 mm 4 m/s 750 mmHg 80%
03:00 -4°C° 0 mm 4 m/s 750 mmHg 80%
04:00 -5°C° 0 mm 4 m/s 751 mmHg 81%
05:00 -5°C° 0 mm 4 m/s 751 mmHg 80%
06:00 -5°C° 0 mm 3 m/s 752 mmHg 79%
07:00 -5°C° 0 mm 3 m/s 752 mmHg 78%
08:00 -4°C° 0 mm 3 m/s 752 mmHg 72%
09:00 -3°C° 0 mm 4 m/s 753 mmHg 65%
10:00 -2°C° 0 mm 4 m/s 753 mmHg 59%
11:00 -1°C° 0.1 mm 4 m/s 753 mmHg 56%
12:00 0°C° 0.1 mm 4 m/s 753 mmHg 52%
13:00 0°C° 0.1 mm 4 m/s 753 mmHg 49%
14:00 0°C° 0 mm 4 m/s 753 mmHg 49%
15:00 +1°C° 0 mm 3 m/s 753 mmHg 49%
16:00 +1°C° 0 mm 3 m/s 753 mmHg 49%
17:00 0°C° 0 mm 3 m/s 753 mmHg 54%
18:00 -1°C° 0 mm 2 m/s 753 mmHg 59%
19:00 -2°C° 0 mm 2 m/s 753 mmHg 64%
20:00 -2°C° 0 mm 2 m/s 753 mmHg 64%
21:00 -2°C° 0 mm 2 m/s 754 mmHg 64%
22:00 -4°C° 0 mm 3 m/s 754 mmHg 64%
23:00 -4°C° 0 mm 3 m/s 754 mmHg 63%

7 Março, Domingo

Tempo Temperatura Precipitação Vento Pressão Humidade
00:00 -4°C° 0 mm 3 m/s 753 mmHg 62%
01:00 -2°C° 0 mm 3 m/s 753 mmHg 61%
02:00 -4°C° 0 mm 3 m/s 753 mmHg 61%
03:00 -4°C° 0 mm 3 m/s 753 mmHg 62%
04:00 -4°C° 0 mm 3 m/s 752 mmHg 62%
05:00 -4°C° 0 mm 3 m/s 752 mmHg 62%
06:00 -4°C° 0 mm 3 m/s 752 mmHg 62%
07:00 -2°C° 0 mm 3 m/s 752 mmHg 62%
08:00 -1°C° 0 mm 3 m/s 752 mmHg 60%
09:00 0°C° 0 mm 4 m/s 751 mmHg 57%
10:00 +1°C° 0 mm 4 m/s 751 mmHg 55%
11:00 +3°C° 0 mm 4 m/s 751 mmHg 55%
12:00 +4°C° 0 mm 4 m/s 750 mmHg 54%
13:00 +4°C° 0 mm 4 m/s 750 mmHg 54%
14:00 +4°C° 0 mm 4 m/s 749 mmHg 56%
15:00 +4°C° 0 mm 4 m/s 748 mmHg 58%
16:00 +4°C° 0 mm 4 m/s 747 mmHg 60%
17:00 +1°C° 0 mm 4 m/s 747 mmHg 64%
18:00 +1°C° 0 mm 3 m/s 747 mmHg 69%
19:00 0°C° 0 mm 3 m/s 746 mmHg 74%
20:00 -1°C° 0 mm 3 m/s 746 mmHg 75%
21:00 -1°C° 0 mm 3 m/s 746 mmHg 75%
22:00 -1°C° 0 mm 3 m/s 746 mmHg 76%
23:00 -1°C° 0 mm 3 m/s 746 mmHg 76%
Mostrar mais

Necessitamos do seu Consentimento

A Meteoprog e os seus Fornecedores de Serviços podem armazenar e aceder a dados pessoais como cookies, identificadores do dispositivo ou outras tecnologias semelhantes existentes no seu dispositivo e processar estes dados para personalizar conteúdos e anúncios, assim como funcionalidades nas redes sociais e análise de tráfego.

  • Armazenar e/ou aceder a informações no seu dispositivo

    Os cookies, identificadores do dispositivo ou outras informações podem ser armazenados ou acedidos no seu dispositivo, para os fins acima indicados.

  • Anúncios e conteúdos personalizados, medição de anúncios e conteúdos, dados sobre o público-alvo e desenvolvimento de produtos

    Os anúncios e os conteúdos podem ser personalizados com base num perfil. Podem ser adicionados dados adicionais para uma maior personalização dos anúncios e dos conteúdos. A eficácia dos anúncios e dos conteúdos pode ser medida. Podem ser obtidas informações sobre o público que visualizou os anúncios e os conteúdos. Estes dados podem ser usados para desenvolver ou melhorar sistemas, softwares ou a experiência do utilizador.

Ao clicar em "Eu concordo”, permitirá o uso de cookies, identificadores do dispositivo e web beacons mencionados ou outras tecnologias semelhantes. As configurações do navegador do seu dispositivo podem ser alteradas.

Para certos fins, podem ser invocados interesses legítimos ao invés de consentimento. Pode ler mais informação sobre este assunto na nossa Política de Privacidade e Cookies.